Change the Weather History Date:

Wednesday, October 3, 2012

  Actual Average Record
Temperature  
Mean Temperature 40 °F -  
Max Temperature 43 °F 60 °F 74 °F (2011)
Min Temperature 37 °F 34 °F 23 °F (1999)
Degree Days  
Heating Degree Days 25    
Moisture  
Dew Point 37 °F    
Average Humidity 86    
Maximum Humidity 93    
Minimum Humidity 76    
Precipitation  
Precipitation 0.50 in - - ()
Sea Level Pressure  
Sea Level Pressure 30.13 in    
Wind  
Wind Speed 12 mph (North)    
Max Wind Speed 21 mph    
Max Gust Speed 25 mph    
Visibility 10 miles    
Events Rain    
Averages and records for this station are not official NWS values.
T = Trace of Precipitation, MM = Missing Value Source: NWS Daily Summary

Daily Weather History Graph

Daily Weather History Graph

Search for Another Location

Airport or City:

Trip Planner

Search our weather history database for the weather conditions in past years. The results will help you decide how hot, cold, wet, or windy it might be!

Date:

Astronomy

Oct. 03, 2012 Rise Set
Actual Time 7:48 AM CDT 7:19 PM CDT
Civil Twilight 7:17 AM CDT 7:50 PM CDT
Nautical Twilight 6:40 AM CDT 8:26 PM CDT
Astronomical Twilight 6:04 AM CDT 9:03 PM CDT
Moon 8:52 PM CDT (10/3) 11:33 AM CDT (10/3)
Length of Visible Light 12h 33m
Length of Day
11h 30m
Waning Gibbous, 88% of the Moon is Illuminated
Oct 3
Waning Gibbous
Oct 8
Last Quarter
Oct 15
New
Oct 21
First Quarter
Oct 29
Full

Hourly Weather History & Observations

Time (CDT) Temp. Windchill Dew Point Humidity Pressure Visibility Wind Dir Wind Speed Gust Speed Precip Events Conditions
12:55 AM 42.3 °F 35.9 °F 36.9 °F 81% 29.88 in 10.0 mi WNW 11.5 mph - N/A   Clear
1:55 AM 40.8 °F 36.2 °F 36.1 °F 83% 29.91 in 10.0 mi WNW 6.9 mph - N/A   Clear
2:55 AM 38.1 °F 31.7 °F 34.2 °F 86% 29.91 in 10.0 mi WNW 9.2 mph - N/A   Clear
3:55 AM 37.8 °F 31.3 °F 34.0 °F 86% 29.93 in 10.0 mi WNW 9.2 mph - N/A   Clear
4:55 AM 39.9 °F 36.7 °F 34.3 °F 80% 29.96 in 10.0 mi West 4.6 mph - N/A   Clear
5:55 AM 41.0 °F 34.7 °F 34.5 °F 78% 29.94 in 10.0 mi NNW 10.4 mph - N/A   Clear
6:55 AM 41.2 °F 34.1 °F 34.2 °F 76% 30.00 in 10.0 mi NNW 12.7 mph - N/A   Clear
7:55 AM 41.0 °F 34.7 °F 36.3 °F 83% 30.03 in 10.0 mi NNW 10.4 mph - 0.00 in Rain Light Rain
7:56 AM 41.0 °F 34.7 °F 35.6 °F 81% 30.03 in 10.0 mi NNW 10.4 mph - N/A Rain Light Rain
8:34 AM 41.0 °F 34.3 °F 35.6 °F 81% 30.00 in 10.0 mi North 11.5 mph - N/A   Scattered Clouds
8:55 AM 41.5 °F 33.5 °F 37.0 °F 84% 30.00 in 10.0 mi North 16.1 mph - 0.00 in Rain Light Rain
9:55 AM 42.1 °F 34.9 °F 38.3 °F 86% 30.02 in 10.0 mi North 13.8 mph - 0.06 in Rain Light Rain
10:19 AM 42.8 °F 36.2 °F 39.2 °F 87% 30.04 in 10.0 mi North 12.7 mph - N/A Rain Light Rain
10:55 AM 42.6 °F 36.8 °F 39.4 °F 88% 30.06 in 10.0 mi North 10.4 mph - 0.05 in Rain Light Rain
11:05 AM 42.8 °F 37.0 °F 39.2 °F 87% 30.06 in 7.0 mi North 10.4 mph - N/A Rain Rain
11:09 AM 42.8 °F 37.0 °F 39.2 °F 87% 30.06 in 7.0 mi NNE 10.4 mph - N/A Rain Rain
11:11 AM 42.8 °F 36.6 °F 39.2 °F 87% 30.07 in 7.0 mi NNE 11.5 mph - N/A Rain Rain
11:20 AM 42.8 °F 36.6 °F 41.0 °F 93% 30.07 in 8.0 mi NNE 11.5 mph - N/A Rain Light Rain
11:55 AM 43.7 °F 36.3 °F 39.9 °F 87% 30.06 in 10.0 mi NE 16.1 mph - 0.08 in Rain Light Rain
12:55 PM 43.7 °F 36.3 °F 38.8 °F 83% 30.08 in 10.0 mi North 16.1 mph - 0.01 in   Light Drizzle
1:55 PM 43.2 °F 35.0 °F 37.0 °F 79% 30.14 in 10.0 mi North 18.4 mph - 0.00 in Rain Light Rain
2:55 PM 41.5 °F 32.9 °F 36.7 °F 83% 30.14 in 7.0 mi NNE 18.4 mph 24.2 mph 0.04 in Rain Rain
3:55 PM 41.2 °F 35.0 °F 37.2 °F 86% 30.19 in 7.0 mi NNE 10.4 mph - 0.07 in Rain Rain
4:55 PM 40.6 °F 32.3 °F 37.0 °F 87% 30.19 in 10.0 mi North 16.1 mph 21.9 mph 0.04 in Rain Light Rain
5:47 PM 39.2 °F 29.3 °F 35.6 °F 87% 30.21 in 10.0 mi North 20.7 mph 25.3 mph N/A Rain Light Rain
5:54 PM 39.2 °F 31.2 °F 35.6 °F 87% 30.22 in 10.0 mi North 13.8 mph - N/A Rain Light Rain
5:55 PM 39.7 °F 31.9 °F 36.3 °F 88% 30.22 in 10.0 mi North 13.8 mph - 0.03 in Rain Light Rain
6:28 PM 39.2 °F 30.5 °F 35.6 °F 87% 30.24 in 10.0 mi North 16.1 mph - N/A Rain Light Rain
6:55 PM 39.0 °F 29.9 °F 36.5 °F 91% 30.25 in 10.0 mi North 17.3 mph 23.0 mph 0.02 in Rain Light Rain
7:50 PM 39.2 °F 31.6 °F 35.6 °F 87% 30.29 in 10.0 mi North 12.7 mph - N/A Rain Light Rain
7:51 PM 39.2 °F 31.2 °F 35.6 °F 87% 30.29 in 10.0 mi North 13.8 mph - N/A Rain Light Rain
7:55 PM 38.5 °F 30.7 °F 36.1 °F 91% 30.29 in 10.0 mi North 12.7 mph - 0.04 in Rain Light Rain
8:55 PM 38.7 °F 30.5 °F 36.1 °F 91% 30.30 in 10.0 mi North 13.8 mph - 0.02 in Rain Light Rain
9:08 PM 39.2 °F 30.5 °F 35.6 °F 87% 30.30 in 10.0 mi North 16.1 mph 21.9 mph N/A Rain Light Rain
9:32 PM 39.2 °F 30.2 °F 35.6 °F 87% 30.30 in 10.0 mi North 17.3 mph 23.0 mph N/A Rain Light Rain
9:55 PM 38.3 °F 29.0 °F 35.1 °F 88% 30.30 in 10.0 mi North 17.3 mph 24.2 mph 0.02 in Rain Light Rain
10:28 PM 37.4 °F 27.8 °F 35.6 °F 93% 30.31 in 10.0 mi North 17.3 mph 23.0 mph N/A Rain Light Rain
10:55 PM 37.9 °F 28.2 °F 34.7 °F 88% 30.31 in 10.0 mi North 18.4 mph 21.9 mph 0.01 in   Light Drizzle
11:55 PM 37.9 °F 28.5 °F 34.2 °F 86% 30.32 in 10.0 mi North 17.3 mph 24.2 mph 0.01 in Rain Light Rain